sat.trackr.live / text

‹ back to catalog

STARLINK-33887

NORAD 63680 · 2025-085S

PAYLOAD ACTIVE UNKNOWN

§ Identity

Operator
Country
US
Launch date
2025-04-28
Launch site
AFETR
Launch vehicle
Mass (kg)
RCS (m²)

Purposes: comms

External: N2YO · Heavens-Above · Gunter

§ Orbital elements

Epoch: 2026-09-20T08:03:08.624736Z

Period
94.27 min
Inclination
43.0030°
Eccentricity
0.0000681
Mean motion
15.27581091 rev/d
Perigee alt
482.6 km
Apogee alt
483.5 km
Semi-major
6,861.2 km
B*
2.1230e-4
RAAN
11.2125°
Arg perigee
277.1169°
Mean anomaly
82.9605°
Rev number
7,870

§ Raw data

STARLINK-338871 63680U 25085S   26263.33551649  .00005585  00000+0  21230-3 0  99912 63680  43.0030  11.2125 0000681 277.1169  82.9605 15.27581091 78706

JSON: /api/v1/satellites/63680 · /tle

For live sub-satellite position, see the globe view (requires WebGL).

§ Visibility from observer

Set your observer location to see the next 7 days of passes ≥ 10°. The values pass through the URL so the page stays shareable.

No JS? Fill the form by hand. The geolocation button needs JavaScript.